Weather History for Staunton, VA

Change the Weather History Date:

Monday, March 11, 2013

  Actual Average Record
Temperature  
Mean Temperature 50 °F -  
Max Temperature 59 °F 52 °F 78 °F (2006)
Min Temperature 40 °F 31 °F 17 °F (1998)
Degree Days  
Heating Degree Days 16    
Moisture  
Dew Point 35 °F    
Average Humidity 54    
Maximum Humidity 74    
Minimum Humidity 26    
Precipitation  
Precipitation 0.00 in - - ()
Sea Level Pressure  
Sea Level Pressure 30.05 in    
Wind  
Wind Speed 6 mph (South)    
Max Wind Speed 15 mph    
Max Gust Speed 22 mph    
Visibility 10 miles    
Events Rain    
Averages and records for this station are not official NWS values.
T = Trace of Precipitation, MM = Missing Value Source: NWS Daily Summary

Daily Weather History Graph

Daily Weather History Graph

Search for Another Location

Airport:

Trip Planner

Search our weather history database for the weather conditions in past years. The results will help you decide how hot, cold, wet, or windy it might be!

Date:

Astronomy

Mar. 11, 2013 Rise Set
Actual Time 7:32 AM EDT 7:19 PM EDT
Civil Twilight 7:06 AM EDT 7:45 PM EDT
Nautical Twilight 6:35 AM EDT 8:16 PM EDT
Astronomical Twilight 6:04 AM EDT 8:46 PM EDT
Moon 7:05 AM EDT (3/11) 7:28 PM EDT (3/11)
Length of Visible Light 12h 39m
Length of Day
11h 46m
Waning Crescent, 0% of the Moon is Illuminated
Mar 11
Waning Crescent
Mar 11
New
Mar 19
First Quarter
Mar 27
Full
Apr 3
Last Quarter

Hourly Weather History & Observations

Time (EDT) Temp. Windchill Dew Point Humidity Pressure Visibility Wind Dir Wind Speed Gust Speed Precip Events Conditions
12:15 AM 46.9 °F - 27.3 °F 46% 30.21 in 10.0 mi SW 6.9 mph - N/A   Clear
12:35 AM 50.4 °F - 24.1 °F 36% 30.20 in 10.0 mi South 6.9 mph - N/A   Clear
12:55 AM 51.1 °F - 23.2 °F 34% 30.19 in 10.0 mi South 6.9 mph - N/A   Clear
1:15 AM 51.1 °F - 23.0 °F 33% 30.19 in 10.0 mi SSE 4.6 mph - N/A   Clear
1:35 AM 50.5 °F - 22.5 °F 33% 30.18 in 10.0 mi South 3.5 mph - N/A   Clear
1:55 AM 49.1 °F - 23.5 °F 37% 30.18 in 10.0 mi SSW 4.6 mph - N/A   Clear
2:35 AM 45.0 °F 43.5 °F 25.9 °F 47% 30.17 in 10.0 mi SW 3.5 mph - N/A   Clear
2:55 AM 44.1 °F 41.5 °F 26.4 °F 50% 30.17 in 10.0 mi WSW 4.6 mph - N/A   Clear
3:15 AM 45.7 °F 42.0 °F 25.5 °F 45% 30.16 in 10.0 mi SSW 6.9 mph - N/A   Clear
3:55 AM 43.7 °F 42.1 °F 25.9 °F 50% 30.14 in 10.0 mi SW 3.5 mph - N/A   Clear
4:15 AM 42.4 °F 40.7 °F 26.2 °F 53% 30.13 in 10.0 mi SW 3.5 mph - N/A   Clear
4:35 AM 42.8 °F - 26.1 °F 52% 30.13 in 10.0 mi Calm Calm - N/A   Clear
4:55 AM 42.3 °F - 26.4 °F 54% 30.13 in 10.0 mi Calm Calm - N/A   Clear
5:15 AM 42.4 °F 40.7 °F 26.6 °F 54% 30.12 in 10.0 mi SW 3.5 mph - N/A   Clear
5:35 AM 43.2 °F 39.7 °F 27.1 °F 53% 30.12 in 10.0 mi SSW 5.8 mph - N/A   Clear
6:15 AM 43.2 °F 41.5 °F 27.1 °F 53% 30.11 in 10.0 mi WSW 3.5 mph - N/A   Clear
6:35 AM 41.0 °F 38.0 °F 28.0 °F 60% 30.11 in 10.0 mi SW 4.6 mph - N/A   Clear
6:55 AM 40.1 °F 38.0 °F 28.2 °F 63% 30.12 in 10.0 mi WSW 3.5 mph - N/A   Clear
7:15 AM 42.4 °F 38.8 °F 27.0 °F 54% 30.11 in 10.0 mi SSW 5.8 mph - N/A   Clear
7:35 AM 42.1 °F 40.2 °F 26.8 °F 55% 30.11 in 10.0 mi WSW 3.5 mph - N/A   Clear
7:55 AM 43.3 °F 41.7 °F 26.8 °F 52% 30.12 in 10.0 mi SSW 3.5 mph - N/A   Clear
8:15 AM 42.3 °F 40.5 °F 27.3 °F 56% 30.12 in 10.0 mi SSW 3.5 mph - N/A   Clear
8:35 AM 43.9 °F - 26.2 °F 50% 30.12 in 10.0 mi Calm Calm - N/A   Clear
8:55 AM 44.2 °F 41.8 °F 27.3 °F 51% 30.12 in 10.0 mi West 4.6 mph - N/A   Clear
9:15 AM 44.6 °F - 29.5 °F 55% 30.11 in 10.0 mi Calm Calm - N/A   Clear
9:35 AM 46.4 °F - 29.3 °F 51% 30.11 in 10.0 mi Calm Calm - N/A   Clear
9:55 AM 48.7 °F - 29.1 °F 47% 30.11 in 10.0 mi WSW 4.6 mph - N/A   Clear
10:15 AM 50.0 °F - 28.4 °F 43% 30.12 in 10.0 mi SSW 5.8 mph - N/A   Clear
10:35 AM 51.1 °F - 24.4 °F 35% 30.12 in 10.0 mi South 6.9 mph - N/A   Clear
10:55 AM 51.3 °F - 24.1 °F 35% 30.13 in 10.0 mi SSW 5.8 mph - N/A   Clear
11:15 AM 51.8 °F - 23.7 °F 33% 30.11 in 10.0 mi SSE 5.8 mph - N/A   Clear
11:35 AM 52.3 °F - 23.0 °F 32% 30.11 in 10.0 mi South 6.9 mph - N/A   Clear
11:55 AM 53.2 °F - 21.0 °F 28% 30.10 in 10.0 mi SSE 4.6 mph - N/A   Clear
12:15 PM 54.0 °F - 19.9 °F 26% 30.09 in 10.0 mi South 10.4 mph - N/A   Clear
12:35 PM 54.5 °F - 21.4 °F 28% 30.08 in 10.0 mi SSE 6.9 mph - N/A   Clear
12:55 PM 55.0 °F - 24.8 °F 31% 30.08 in 10.0 mi South 6.9 mph - N/A   Clear
1:15 PM 55.4 °F - 31.3 °F 40% 30.07 in 10.0 mi South 11.5 mph 17.3 mph N/A   Clear
1:35 PM 56.1 °F - 34.3 °F 44% 30.06 in 10.0 mi SSE 10.4 mph 16.1 mph N/A   Clear
1:55 PM 57.2 °F - 37.9 °F 49% 30.05 in 10.0 mi SSE 11.5 mph - N/A   Clear
2:15 PM 57.2 °F - 39.7 °F 52% 30.03 in 10.0 mi SSE 8.1 mph - N/A   Scattered Clouds
2:35 PM 56.3 °F - 41.0 °F 57% 30.03 in 10.0 mi SSE 12.7 mph 19.6 mph N/A   Clear
2:55 PM 55.9 °F - 41.4 °F 58% 30.02 in 10.0 mi SSE 11.5 mph 17.3 mph N/A   Clear
3:15 PM 55.9 °F - 41.5 °F 58% 30.02 in 10.0 mi SSE 15.0 mph 19.6 mph N/A   Clear
3:35 PM 55.9 °F - 41.9 °F 59% 30.01 in 10.0 mi South 11.5 mph 19.6 mph N/A   Scattered Clouds
3:55 PM 55.8 °F - 42.3 °F 60% 29.99 in 10.0 mi SSE 10.4 mph - N/A   Scattered Clouds
4:15 PM 55.9 °F - 42.8 °F 61% 29.98 in 10.0 mi SSE 8.1 mph - N/A   Scattered Clouds
4:35 PM 56.5 °F - 44.1 °F 63% 29.96 in 10.0 mi South 10.4 mph - N/A   Scattered Clouds
4:55 PM 57.2 °F - 45.5 °F 65% 29.96 in 10.0 mi South 12.7 mph - N/A   Mostly Cloudy
5:15 PM 57.4 °F - 46.2 °F 66% 29.97 in 10.0 mi South 11.5 mph - N/A   Scattered Clouds
5:35 PM 57.4 °F - 46.4 °F 67% 29.96 in 10.0 mi South 9.2 mph - N/A   Scattered Clouds
5:55 PM 57.2 °F - 46.0 °F 66% 29.96 in 10.0 mi South 9.2 mph - N/A   Mostly Cloudy
6:15 PM 57.2 °F - 46.4 °F 67% 29.96 in 10.0 mi South 8.1 mph - N/A   Mostly Cloudy
6:35 PM 57.4 °F - 46.6 °F 67% 29.94 in 10.0 mi SSE 6.9 mph - N/A   Overcast
6:55 PM 57.0 °F - 46.6 °F 68% 29.95 in 10.0 mi South 4.6 mph - N/A   Overcast
7:15 PM 57.0 °F - 47.1 °F 69% 29.96 in 10.0 mi SSW 5.8 mph - N/A   Overcast
7:35 PM 57.4 °F - 47.1 °F 69% 29.95 in 10.0 mi SSE 6.9 mph - N/A   Overcast
7:55 PM 56.3 °F - 46.9 °F 71% 29.94 in 10.0 mi Calm Calm - N/A   Overcast
8:15 PM 56.3 °F - 46.9 °F 71% 29.95 in 10.0 mi Calm Calm - N/A   Overcast
8:35 PM 56.8 °F - 47.3 °F 70% 29.94 in 10.0 mi SSE 5.8 mph - N/A   Overcast
8:55 PM 57.2 °F - 47.5 °F 70% 29.93 in 10.0 mi SW 3.5 mph - N/A   Overcast
9:15 PM 56.5 °F - 47.5 °F 72% 29.93 in 10.0 mi Calm Calm - N/A Rain Light Rain
9:35 PM 58.1 °F - 46.8 °F 66% 29.93 in 10.0 mi South 4.6 mph - N/A   Light Drizzle
9:55 PM 59.0 °F - 46.6 °F 63% 29.92 in 10.0 mi SSE 9.2 mph - N/A Rain Light Rain
10:15 PM 58.5 °F - 47.3 °F 66% 29.91 in 10.0 mi SSW 9.2 mph - N/A Rain Light Rain
10:35 PM 57.7 °F - 48.2 °F 70% 29.90 in 10.0 mi South 10.4 mph - N/A Rain Light Rain
10:55 PM 58.1 °F - 48.6 °F 71% 29.89 in 10.0 mi South 11.5 mph 17.3 mph N/A   Drizzle
11:15 PM 58.3 °F - 48.9 °F 71% 29.87 in 10.0 mi South 12.7 mph 21.9 mph N/A   Light Drizzle
11:35 PM 58.1 °F - 49.1 °F 72% 29.88 in 10.0 mi South 12.7 mph 18.4 mph N/A   Mostly Cloudy
11:55 PM 57.9 °F - 49.6 °F 74% 29.88 in 10.0 mi South 15.0 mph 21.9 mph N/A Rain Light Rain